Time,TemperatureF,DewpointF,PressureIn,WindDirection,WindDirectionDegrees,WindSpeedMPH,WindSpeedGustMPH,Humidity,HourlyPrecipIn,Conditions,Clouds,dailyrainin,SoftwareType,DateUTC
2013-01-26 00:00:00,24.7,21.4,30.26,SSW,194,2.0,0.0,87,0.00,,,0.00,VWS V14.01,2013-01-26 05:00:00,
2013-01-26 00:01:00,24.7,21.4,30.26,SSW,193,2.0,0.0,87,0.00,,,0.00,VWS V14.01,2013-01-26 05:01:00,
2013-01-26 00:06:00,24.7,21.4,30.26,SSW,205,1.0,0.0,87,0.00,,,0.00,VWS V14.01,2013-01-26 05:06:00,
2013-01-26 00:10:00,24.7,21.4,30.26,SSW,202,3.0,0.0,87,0.00,,,0.00,VWS V14.01,2013-01-26 05:10:00,
2013-01-26 00:11:00,24.7,21.4,30.26,SSW,210,0.0,0.0,87,0.00,,,0.00,VWS V14.01,2013-01-26 05:11:00,
2013-01-26 00:16:00,24.7,21.4,30.27,South,189,3.0,0.0,87,0.00,,,0.00,VWS V14.01,2013-01-26 05:16:00,
2013-01-26 00:20:00,24.7,21.4,30.27,South,187,0.0,0.0,87,0.00,,,0.00,VWS V14.01,2013-01-26 05:20:00,
2013-01-26 00:21:00,24.7,21.4,30.27,SW,217,4.0,0.0,87,0.00,,,0.00,VWS V14.01,2013-01-26 05:21:00,
2013-01-26 00:26:00,24.8,21.5,30.27,SSW,195,2.0,0.0,87,0.00,,,0.00,VWS V14.01,2013-01-26 05:26:00,
2013-01-26 00:30:00,24.8,21.5,30.27,SW,220,3.0,0.0,87,0.00,,,0.00,VWS V14.01,2013-01-26 05:30:00,
2013-01-26 00:31:00,25.0,21.7,30.27,SW,217,3.0,0.0,87,0.00,,,0.00,VWS V14.01,2013-01-26 05:31:00,
2013-01-26 00:36:00,25.0,21.7,30.27,SSW,211,2.0,0.0,87,0.00,,,0.00,VWS V14.01,2013-01-26 05:36:00,
2013-01-26 00:40:00,25.1,21.8,30.27,SW,225,2.0,0.0,87,0.00,,,0.00,VWS V14.01,2013-01-26 05:40:00,
2013-01-26 00:41:00,25.1,21.8,30.27,SW,220,3.0,0.0,87,0.00,,,0.00,VWS V14.01,2013-01-26 05:41:00,
2013-01-26 00:46:00,25.3,22.0,30.27,SW,229,4.0,0.0,87,0.00,,,0.00,VWS V14.01,2013-01-26 05:46:00,
2013-01-26 00:50:00,25.3,22.0,30.27,SW,228,3.0,0.0,87,0.00,,,0.00,VWS V14.01,2013-01-26 05:50:00,
2013-01-26 00:51:00,25.3,22.0,30.27,SW,214,3.0,0.0,87,0.00,,,0.00,VWS V14.01,2013-01-26 05:51:00,
2013-01-26 00:56:00,25.4,22.1,30.27,SW,225,2.0,0.0,87,0.00,,,0.00,VWS V14.01,2013-01-26 05:56:00,
2013-01-26 01:00:00,25.4,21.8,30.27,SSW,207,3.0,0.0,86,0.00,,,0.00,VWS V14.01,2013-01-26 06:00:00,
2013-01-26 01:01:00,25.4,22.1,30.27,SSW,211,4.0,0.0,87,0.00,,,0.00,VWS V14.01,2013-01-26 06:01:00,
2013-01-26 01:06:00,25.6,22.3,30.27,SSW,209,3.0,0.0,87,0.00,,,0.00,VWS V14.01,2013-01-26 06:06:00,
2013-01-26 01:10:00,25.6,22.0,30.27,SSW,196,4.0,0.0,86,0.00,,,0.00,VWS V14.01,2013-01-26 06:10:00,
2013-01-26 01:12:00,25.7,22.1,30.27,SW,227,4.0,0.0,86,0.00,,,0.00,VWS V14.01,2013-01-26 06:12:00,
2013-01-26 01:16:00,25.6,22.0,30.27,SSW,210,4.0,0.0,86,0.00,,,0.00,VWS V14.01,2013-01-26 06:16:00,
2013-01-26 01:20:00,25.6,22.0,30.27,SW,225,3.0,0.0,86,0.00,,,0.00,VWS V14.01,2013-01-26 06:20:00,
2013-01-26 01:22:00,25.6,22.0,30.27,SSW,208,2.0,0.0,86,0.00,,,0.00,VWS V14.01,2013-01-26 06:22:00,
2013-01-26 01:27:00,25.4,22.1,30.27,WSW,240,3.0,0.0,87,0.00,,,0.00,VWS V14.01,2013-01-26 06:27:00,
2013-01-26 01:30:00,25.4,22.1,30.27,SW,227,4.0,0.0,87,0.00,,,0.00,VWS V14.01,2013-01-26 06:30:00,
2013-01-26 01:32:00,25.4,22.1,30.27,SW,225,3.0,0.0,87,0.00,,,0.00,VWS V14.01,2013-01-26 06:32:00,
2013-01-26 01:37:00,25.3,22.0,30.27,SW,232,4.0,0.0,87,0.00,,,0.00,VWS V14.01,2013-01-26 06:37:00,
2013-01-26 01:40:00,25.3,22.0,30.27,SW,225,0.0,0.0,87,0.00,,,0.00,VWS V14.01,2013-01-26 06:40:00,
2013-01-26 01:42:00,25.3,22.0,30.27,SSW,211,4.0,0.0,87,0.00,,,0.00,VWS V14.01,2013-01-26 06:42:00,
2013-01-26 01:47:00,25.3,22.2,30.27,SW,216,5.0,0.0,88,0.00,,,0.00,VWS V14.01,2013-01-26 06:47:00,
2013-01-26 01:50:00,25.3,22.2,30.27,SW,217,4.0,0.0,88,0.00,,,0.00,VWS V14.01,2013-01-26 06:50:00,
2013-01-26 01:52:00,25.3,22.2,30.27,SW,219,3.0,0.0,88,0.00,,,0.00,VWS V14.01,2013-01-26 06:52:00,
2013-01-26 01:57:00,25.3,22.2,30.27,SW,223,3.0,0.0,88,0.00,,,0.00,VWS V14.01,2013-01-26 06:57:00,
2013-01-26 02:00:00,25.3,22.2,30.27,WSW,240,4.0,0.0,88,0.00,,,0.00,VWS V14.01,2013-01-26 07:00:00,
2013-01-26 02:02:00,25.3,22.2,30.27,WSW,238,2.0,0.0,88,0.00,,,0.00,VWS V14.01,2013-01-26 07:02:00,
2013-01-26 02:07:00,25.3,22.2,30.27,SW,215,7.0,0.0,88,0.00,,,0.00,VWS V14.01,2013-01-26 07:07:00,
2013-01-26 02:12:00,25.4,22.6,30.27,SW,225,2.0,0.0,89,0.00,,,0.00,VWS V14.01,2013-01-26 07:12:00,
2013-01-26 02:17:00,25.4,22.6,30.27,SW,222,6.0,0.0,89,0.00,,,0.00,VWS V14.01,2013-01-26 07:17:00,
2013-01-26 02:20:00,25.4,22.6,30.27,SW,217,6.0,0.0,89,0.00,,,0.00,VWS V14.01,2013-01-26 07:20:00,
2013-01-26 02:22:00,25.4,22.6,30.27,SSW,212,6.0,0.0,89,0.00,,,0.00,VWS V14.01,2013-01-26 07:22:00,
2013-01-26 02:30:00,25.6,22.8,30.27,SSW,211,4.0,0.0,89,0.00,,,0.00,VWS V14.01,2013-01-26 07:30:00,
2013-01-26 02:32:00,25.6,22.8,30.27,South,186,2.0,0.0,89,0.00,,,0.00,VWS V14.01,2013-01-26 07:32:00,
2013-01-26 02:40:00,25.7,22.9,30.27,SSW,213,5.0,0.0,89,0.00,,,0.00,VWS V14.01,2013-01-26 07:40:00,
2013-01-26 02:47:00,25.7,22.9,30.27,SW,223,2.0,0.0,89,0.00,,,0.00,VWS V14.01,2013-01-26 07:47:00,
2013-01-26 02:50:00,25.7,22.9,30.27,South,188,5.0,0.0,89,0.00,,,0.00,VWS V14.01,2013-01-26 07:50:00,
2013-01-26 02:57:00,25.7,23.2,30.27,SSW,210,2.0,0.0,90,0.00,,,0.00,VWS V14.01,2013-01-26 07:57:00,
2013-01-26 03:00:00,25.8,23.3,30.27,SSW,209,4.0,0.0,90,0.00,,,0.00,VWS V14.01,2013-01-26 08:00:00,
2013-01-26 03:02:00,25.8,23.3,30.27,SSW,202,5.0,0.0,90,0.00,,,0.00,VWS V14.01,2013-01-26 08:02:00,
2013-01-26 03:07:00,25.8,23.3,30.27,SW,216,4.0,0.0,90,0.00,,,0.00,VWS V14.01,2013-01-26 08:07:00,
2013-01-26 03:14:00,25.3,22.5,30.27,SW,234,4.0,0.0,89,0.00,,,0.00,VWS V14.01,2013-01-26 08:14:00,
2013-01-26 03:20:00,26.1,23.6,30.27,SW,226,4.0,0.0,90,0.00,,,0.00,VWS V14.01,2013-01-26 08:20:00,
2013-01-26 03:27:00,26.1,23.6,30.27,WSW,238,2.0,0.0,90,0.00,,,0.00,VWS V14.01,2013-01-26 08:27:00,
2013-01-26 03:32:00,25.6,22.8,30.27,SW,223,4.0,0.0,89,0.00,,,0.00,VWS V14.01,2013-01-26 08:32:00,
2013-01-26 03:37:00,26.3,23.8,30.27,SW,228,5.0,0.0,90,0.00,,,0.00,VWS V14.01,2013-01-26 08:37:00,
2013-01-26 03:42:00,25.6,22.8,30.27,SW,214,4.0,0.0,89,0.00,,,0.00,VWS V14.01,2013-01-26 08:42:00,
2013-01-26 03:47:00,25.7,22.9,30.27,SW,220,3.0,0.0,89,0.00,,,0.00,VWS V14.01,2013-01-26 08:47:00,
2013-01-26 03:50:00,26.4,23.9,30.27,SW,229,3.0,0.0,90,0.00,,,0.00,VWS V14.01,2013-01-26 08:50:00,
2013-01-26 03:57:00,25.7,22.9,30.27,SW,226,3.0,0.0,89,0.00,,,0.00,VWS V14.01,2013-01-26 08:57:00,
2013-01-26 04:00:00,26.6,24.1,30.27,SW,219,2.0,0.0,90,0.00,,,0.00,VWS V14.01,2013-01-26 09:00:00,
2013-01-26 04:15:00,25.8,23.3,30.27,SSW,209,6.0,0.0,90,0.00,,,0.00,VWS V14.01,2013-01-26 09:15:00,
2013-01-26 04:22:00,26.1,23.6,30.27,SW,225,3.0,0.0,90,0.00,,,0.00,VWS V14.01,2013-01-26 09:22:00,
2013-01-26 04:27:00,26.1,23.6,30.27,SW,232,2.0,0.0,90,0.00,,,0.00,VWS V14.01,2013-01-26 09:27:00,
2013-01-26 04:35:00,26.3,23.8,30.27,SW,226,3.0,0.0,90,0.00,,,0.00,VWS V14.01,2013-01-26 09:35:00,
2013-01-26 04:44:00,26.4,23.9,30.27,WSW,242,5.0,0.0,90,0.00,,,0.00,VWS V14.01,2013-01-26 09:44:00,
2013-01-26 04:57:00,26.6,24.1,30.27,SW,223,4.0,0.0,90,0.00,,,0.00,VWS V14.01,2013-01-26 09:57:00,
2013-01-26 05:02:00,26.6,24.1,30.27,SW,229,3.0,0.0,90,0.00,,,0.00,VWS V14.01,2013-01-26 10:02:00,
2013-01-26 05:07:00,26.6,24.1,30.27,WSW,239,4.0,0.0,90,0.00,,,0.00,VWS V14.01,2013-01-26 10:07:00,
2013-01-26 05:12:00,26.6,24.1,30.27,SSW,213,3.0,0.0,90,0.00,,,0.00,VWS V14.01,2013-01-26 10:12:00,
2013-01-26 05:17:00,26.7,24.2,30.27,SW,234,3.0,0.0,90,0.00,,,0.00,VWS V14.01,2013-01-26 10:17:00,
2013-01-26 05:22:00,26.7,24.2,30.27,SW,218,2.0,0.0,90,0.00,,,0.00,VWS V14.01,2013-01-26 10:22:00,
2013-01-26 05:32:00,26.9,24.4,30.27,SW,223,2.0,0.0,90,0.00,,,0.00,VWS V14.01,2013-01-26 10:32:00,
2013-01-26 05:37:00,26.9,24.4,30.27,WSW,243,2.0,0.0,90,0.00,,,0.00,VWS V14.01,2013-01-26 10:37:00,
2013-01-26 05:42:00,26.9,24.4,30.27,SW,236,2.0,0.0,90,0.00,,,0.00,VWS V14.01,2013-01-26 10:42:00,
2013-01-26 05:47:00,26.9,24.4,30.27,WSW,248,4.0,0.0,90,0.00,,,0.00,VWS V14.01,2013-01-26 10:47:00,
2013-01-26 05:52:00,27.0,24.5,30.27,SW,236,4.0,0.0,90,0.00,,,0.00,VWS V14.01,2013-01-26 10:52:00,
2013-01-26 05:57:00,27.0,24.5,30.27,SW,236,3.0,0.0,90,0.00,,,0.00,VWS V14.01,2013-01-26 10:57:00,
2013-01-26 06:02:00,27.0,24.5,30.27,SW,225,6.0,0.0,90,0.00,,,0.00,VWS V14.01,2013-01-26 11:02:00,
2013-01-26 06:07:00,27.0,24.5,30.28,WSW,239,4.0,0.0,90,0.00,,,0.00,VWS V14.01,2013-01-26 11:07:00,
2013-01-26 06:12:00,27.0,24.5,30.28,West,266,4.0,0.0,90,0.00,,,0.00,VWS V14.01,2013-01-26 11:12:00,
2013-01-26 06:17:00,27.0,24.5,30.28,West,273,3.0,0.0,90,0.00,,,0.00,VWS V14.01,2013-01-26 11:17:00,
2013-01-26 06:22:00,27.0,24.2,30.28,SW,229,3.0,0.0,89,0.00,,,0.00,VWS V14.01,2013-01-26 11:22:00,
2013-01-26 06:27:00,27.0,24.2,30.28,WSW,252,2.0,0.0,89,0.00,,,0.00,VWS V14.01,2013-01-26 11:27:00,
2013-01-26 06:32:00,26.9,24.1,30.28,WSW,244,1.0,0.0,89,0.00,,,0.00,VWS V14.01,2013-01-26 11:32:00,
2013-01-26 06:37:00,26.7,23.9,30.28,SW,233,1.0,0.0,89,0.00,,,0.00,VWS V14.01,2013-01-26 11:37:00,
2013-01-26 06:42:00,26.6,23.8,30.28,WSW,249,2.0,0.0,89,0.00,,,0.00,VWS V14.01,2013-01-26 11:42:00,
2013-01-26 06:47:00,26.6,23.8,30.28,WSW,245,0.0,0.0,89,0.00,,,0.00,VWS V14.01,2013-01-26 11:47:00,
2013-01-26 06:52:00,26.4,23.6,30.29,WSW,246,2.0,0.0,89,0.00,,,0.00,VWS V14.01,2013-01-26 11:52:00,
2013-01-26 06:57:00,26.4,23.6,30.29,West,273,3.0,0.0,89,0.00,,,0.00,VWS V14.01,2013-01-26 11:57:00,
2013-01-26 07:02:00,26.3,23.5,30.29,West,271,1.0,0.0,89,0.00,,,0.00,VWS V14.01,2013-01-26 12:02:00,
2013-01-26 07:07:00,26.3,23.5,30.30,West,263,0.0,0.0,89,0.00,,,0.00,VWS V14.01,2013-01-26 12:07:00,
2013-01-26 07:12:00,26.1,23.3,30.30,West,263,0.0,0.0,89,0.00,,,0.00,VWS V14.01,2013-01-26 12:12:00,
2013-01-26 07:17:00,26.1,23.3,30.30,West,263,0.0,0.0,89,0.00,,,0.00,VWS V14.01,2013-01-26 12:17:00,
2013-01-26 07:22:00,26.0,23.2,30.30,West,263,0.0,0.0,89,0.00,,,0.00,VWS V14.01,2013-01-26 12:22:00,
2013-01-26 07:28:00,25.8,23.0,30.30,West,263,2.0,0.0,89,0.00,,,0.00,VWS V14.01,2013-01-26 12:28:00,
2013-01-26 07:33:00,25.8,23.0,30.30,West,260,0.0,0.0,89,0.00,,,0.00,VWS V14.01,2013-01-26 12:33:00,
2013-01-26 07:38:00,25.7,22.9,30.32,WSW,254,0.0,0.0,89,0.00,,,0.00,VWS V14.01,2013-01-26 12:38:00,
2013-01-26 07:43:00,25.6,22.8,30.32,WSW,254,1.0,0.0,89,0.00,,,0.00,VWS V14.01,2013-01-26 12:43:00,
2013-01-26 07:48:00,25.4,22.6,30.32,WSW,254,1.0,0.0,89,0.00,,,0.00,VWS V14.01,2013-01-26 12:48:00,
2013-01-26 07:53:00,25.3,22.5,30.33,WSW,254,1.0,0.0,89,0.00,,,0.00,VWS V14.01,2013-01-26 12:53:00,
2013-01-26 07:58:00,25.1,22.3,30.33,WSW,254,2.0,0.0,89,0.00,,,0.00,VWS V14.01,2013-01-26 12:58:00,
2013-01-26 08:03:00,25.0,22.2,30.33,WSW,254,0.0,0.0,89,0.00,,,0.00,VWS V14.01,2013-01-26 13:03:00,
2013-01-26 08:08:00,25.0,22.2,30.34,WSW,254,0.0,0.0,89,0.00,,,0.00,VWS V14.01,2013-01-26 13:08:00,
2013-01-26 08:13:00,24.8,22.0,30.34,WSW,254,0.0,0.0,89,0.00,,,0.00,VWS V14.01,2013-01-26 13:13:00,
2013-01-26 08:18:00,24.8,22.0,30.34,WSW,254,0.0,0.0,89,0.00,,,0.00,VWS V14.01,2013-01-26 13:18:00,
2013-01-26 08:23:00,24.8,22.0,30.35,WSW,254,0.0,0.0,89,0.00,,,0.00,VWS V14.01,2013-01-26 13:23:00,
2013-01-26 08:28:00,24.8,22.3,30.35,WSW,254,0.0,0.0,90,0.00,,,0.00,VWS V14.01,2013-01-26 13:28:00,
2013-01-26 08:33:00,24.8,22.3,30.35,WSW,254,0.0,0.0,90,0.00,,,0.00,VWS V14.01,2013-01-26 13:33:00,
2013-01-26 08:38:00,24.8,22.3,30.35,WSW,254,0.0,0.0,90,0.00,,,0.00,VWS V14.01,2013-01-26 13:38:00,
2013-01-26 08:43:00,24.8,22.3,30.35,WSW,254,0.0,0.0,90,0.00,,,0.00,VWS V14.01,2013-01-26 13:43:00,
2013-01-26 08:48:00,25.0,22.5,30.35,WSW,254,0.0,0.0,90,0.00,,,0.00,VWS V14.01,2013-01-26 13:48:00,
2013-01-26 08:53:00,25.0,22.5,30.35,WSW,254,0.0,0.0,90,0.00,,,0.00,VWS V14.01,2013-01-26 13:53:00,
2013-01-26 08:58:00,25.0,22.5,30.35,WSW,254,0.0,0.0,90,0.00,,,0.00,VWS V14.01,2013-01-26 13:58:00,
2013-01-26 09:03:00,25.1,22.6,30.35,WSW,254,1.0,0.0,90,0.00,,,0.00,VWS V14.01,2013-01-26 14:03:00,
2013-01-26 09:08:00,25.3,22.8,30.36,WSW,254,1.0,0.0,90,0.00,,,0.00,VWS V14.01,2013-01-26 14:08:00,
2013-01-26 09:13:00,25.4,22.9,30.36,WSW,254,1.0,0.0,90,0.00,,,0.00,VWS V14.01,2013-01-26 14:13:00,
2013-01-26 09:18:00,25.4,22.9,30.36,West,267,1.0,0.0,90,0.00,,,0.00,VWS V14.01,2013-01-26 14:18:00,
2013-01-26 09:23:00,25.4,22.9,30.37,WNW,289,3.0,0.0,90,0.00,,,0.00,VWS V14.01,2013-01-26 14:23:00,
2013-01-26 09:28:00,25.6,23.1,30.37,WNW,293,3.0,0.0,90,0.00,,,0.00,VWS V14.01,2013-01-26 14:28:00,
2013-01-26 09:33:00,25.8,23.3,30.37,WNW,288,2.0,0.0,90,0.00,,,0.00,VWS V14.01,2013-01-26 14:33:00,
2013-01-26 09:38:00,25.8,23.3,30.37,WNW,286,2.0,0.0,90,0.00,,,0.00,VWS V14.01,2013-01-26 14:38:00,
2013-01-26 09:43:00,26.0,23.2,30.37,WNW,294,0.0,0.0,89,0.00,,,0.00,VWS V14.01,2013-01-26 14:43:00,
2013-01-26 09:48:00,26.3,23.5,30.37,WNW,282,3.0,0.0,89,0.00,,,0.00,VWS V14.01,2013-01-26 14:48:00,
2013-01-26 09:53:00,26.4,23.3,30.38,WNW,284,4.0,0.0,88,0.00,,,0.00,VWS V14.01,2013-01-26 14:53:00,
2013-01-26 09:58:00,26.6,23.0,30.38,NW,304,3.0,0.0,86,0.00,,,0.00,VWS V14.01,2013-01-26 14:58:00,
2013-01-26 10:03:00,26.7,22.8,30.38,WNW,288,0.0,0.0,85,0.00,,,0.00,VWS V14.01,2013-01-26 15:03:00,
2013-01-26 10:08:00,27.0,22.8,30.38,NNW,338,3.0,0.0,84,0.00,,,0.00,VWS V14.01,2013-01-26 15:08:00,
2013-01-26 10:13:00,27.0,22.2,30.38,WNW,299,2.0,0.0,82,0.00,,,0.00,VWS V14.01,2013-01-26 15:13:00,
2013-01-26 10:18:00,27.3,22.0,30.38,NNW,338,5.0,0.0,80,0.00,,,0.00,VWS V14.01,2013-01-26 15:18:00,
2013-01-26 10:23:00,27.3,21.4,30.38,WNW,288,3.0,0.0,78,0.00,,,0.00,VWS V14.01,2013-01-26 15:23:00,
2013-01-26 10:28:00,27.3,20.4,30.38,NW,304,1.0,0.0,75,0.00,,,0.00,VWS V14.01,2013-01-26 15:28:00,
2013-01-26 10:33:00,27.6,20.4,30.38,NNW,337,0.0,0.0,74,0.00,,,0.00,VWS V14.01,2013-01-26 15:33:00,
2013-01-26 10:38:00,27.8,20.3,30.38,WNW,292,4.0,0.0,73,0.00,,,0.00,VWS V14.01,2013-01-26 15:38:00,
2013-01-26 10:43:00,27.9,20.1,30.38,NNW,348,3.0,0.0,72,0.00,,,0.00,VWS V14.01,2013-01-26 15:43:00,
2013-01-26 10:48:00,28.1,19.9,30.38,North,5,5.0,0.0,71,0.00,,,0.00,VWS V14.01,2013-01-26 15:48:00,
2013-01-26 10:53:00,28.2,20.0,30.38,NNW,341,4.0,0.0,71,0.00,,,0.00,VWS V14.01,2013-01-26 15:53:00,
2013-01-26 10:58:00,28.4,19.5,30.38,NW,311,3.0,0.0,69,0.00,,,0.00,VWS V14.01,2013-01-26 15:58:00,
2013-01-26 11:03:00,28.5,20.3,30.38,WNW,287,3.0,0.0,71,0.00,,,0.00,VWS V14.01,2013-01-26 16:03:00,
2013-01-26 11:08:00,28.8,19.9,30.39,WNW,288,4.0,0.0,69,0.00,,,0.00,VWS V14.01,2013-01-26 16:08:00,
2013-01-26 11:13:00,28.7,19.1,30.39,WNW,282,0.0,0.0,67,0.00,,,0.00,VWS V14.01,2013-01-26 16:13:00,
2013-01-26 11:18:00,28.7,18.4,30.39,WNW,296,3.0,0.0,65,0.00,,,0.00,VWS V14.01,2013-01-26 16:18:00,
2013-01-26 11:24:00,29.0,19.8,30.40,SW,232,0.0,0.0,68,0.00,,,0.00,VWS V14.01,2013-01-26 16:24:00,
2013-01-26 11:29:00,29.0,19.1,30.40,NNW,342,3.0,0.0,66,0.00,,,0.00,VWS V14.01,2013-01-26 16:29:00,
2013-01-26 11:34:00,29.3,20.1,30.40,NW,321,0.0,0.0,68,0.00,,,0.00,VWS V14.01,2013-01-26 16:34:00,
2013-01-26 11:39:00,29.4,19.5,30.40,NW,307,2.0,0.0,66,0.00,,,0.00,VWS V14.01,2013-01-26 16:39:00,
2013-01-26 11:44:00,29.5,19.6,30.40,WNW,284,1.0,0.0,66,0.00,,,0.00,VWS V14.01,2013-01-26 16:44:00,
2013-01-26 11:49:00,30.1,20.5,30.40,NW,307,6.0,0.0,67,0.00,,,0.00,VWS V14.01,2013-01-26 16:49:00,
2013-01-26 11:54:00,30.0,20.0,30.40,NNW,337,1.0,0.0,66,0.00,,,0.00,VWS V14.01,2013-01-26 16:54:00,
2013-01-26 11:59:00,30.3,20.7,30.40,NNE,29,3.0,0.0,67,0.00,,,0.00,VWS V14.01,2013-01-26 16:59:00,
2013-01-26 12:04:00,30.3,20.0,30.40,WNW,295,3.0,0.0,65,0.00,,,0.00,VWS V14.01,2013-01-26 17:04:00,
2013-01-26 12:09:00,30.6,20.2,30.40,NW,310,5.0,0.0,65,0.00,,,0.00,VWS V14.01,2013-01-26 17:09:00,
2013-01-26 12:14:00,30.4,19.7,30.40,NNE,32,0.0,0.0,64,0.00,,,0.00,VWS V14.01,2013-01-26 17:14:00,
2013-01-26 12:19:00,30.9,20.9,30.40,NNW,331,5.0,0.0,66,0.00,,,0.00,VWS V14.01,2013-01-26 17:19:00,
2013-01-26 12:24:00,30.7,19.6,30.40,North,350,4.0,0.0,63,0.00,,,0.00,VWS V14.01,2013-01-26 17:24:00,
2013-01-26 12:29:00,30.6,19.5,30.40,NNE,14,2.0,0.0,63,0.00,,,0.00,VWS V14.01,2013-01-26 17:29:00,
2013-01-26 12:34:00,30.4,20.1,30.39,SW,228,1.0,0.0,65,0.00,,,0.00,VWS V14.01,2013-01-26 17:34:00,
2013-01-26 12:39:00,31.5,21.5,30.39,NW,321,3.0,0.0,66,0.00,,,0.00,VWS V14.01,2013-01-26 17:39:00,
2013-01-26 12:44:00,31.6,20.8,30.39,NNE,15,4.0,0.0,64,0.00,,,0.00,VWS V14.01,2013-01-26 17:44:00,
2013-01-26 12:49:00,31.8,20.7,30.38,NNW,328,1.0,0.0,63,0.00,,,0.00,VWS V14.01,2013-01-26 17:49:00,
2013-01-26 12:54:00,31.6,20.1,30.38,WNW,284,4.0,0.0,62,0.00,,,0.00,VWS V14.01,2013-01-26 17:54:00,
2013-01-26 12:59:00,31.6,20.8,30.38,WNW,284,4.0,0.0,64,0.00,,,0.00,VWS V14.01,2013-01-26 17:59:00,
2013-01-26 13:04:00,31.9,20.4,30.38,West,265,0.0,0.0,62,0.00,,,0.00,VWS V14.01,2013-01-26 18:04:00,
2013-01-26 13:09:00,31.5,19.6,30.38,WNW,286,2.0,0.0,61,0.01,,,0.01,VWS V14.01,2013-01-26 18:09:00,
2013-01-26 13:14:00,31.3,19.8,30.38,West,270,3.0,0.0,62,0.01,,,0.01,VWS V14.01,2013-01-26 18:14:00,
2013-01-26 13:19:00,31.8,20.3,30.38,West,261,1.0,0.0,62,0.01,,,0.01,VWS V14.01,2013-01-26 18:19:00,
2013-01-26 13:24:00,32.7,20.4,30.38,South,183,0.0,0.0,60,0.01,,,0.01,VWS V14.01,2013-01-26 18:24:00,
2013-01-26 13:29:00,33.1,20.7,30.38,SW,218,0.0,0.0,60,0.01,,,0.01,VWS V14.01,2013-01-26 18:29:00,
2013-01-26 13:34:00,33.7,21.7,30.37,West,275,5.0,0.0,61,0.01,,,0.01,VWS V14.01,2013-01-26 18:34:00,
2013-01-26 13:39:00,33.5,20.3,30.37,NW,326,3.0,0.0,58,0.01,,,0.01,VWS V14.01,2013-01-26 18:39:00,
2013-01-26 13:44:00,33.1,20.4,30.37,WNW,283,0.0,0.0,59,0.02,,,0.02,VWS V14.01,2013-01-26 18:44:00,
2013-01-26 13:49:00,32.9,20.5,30.37,WNW,294,4.0,0.0,60,0.02,,,0.02,VWS V14.01,2013-01-26 18:49:00,
2013-01-26 13:54:00,32.8,20.1,30.37,NW,305,3.0,0.0,59,0.02,,,0.02,VWS V14.01,2013-01-26 18:54:00,
2013-01-26 13:59:00,32.7,20.0,30.37,NW,305,2.0,0.0,59,0.02,,,0.02,VWS V14.01,2013-01-26 18:59:00,
2013-01-26 14:04:00,32.4,20.1,30.38,NW,325,1.0,0.0,60,0.02,,,0.02,VWS V14.01,2013-01-26 19:04:00,
2013-01-26 14:09:00,32.7,20.4,30.38,NW,309,3.0,0.0,60,0.02,,,0.02,VWS V14.01,2013-01-26 19:09:00,
2013-01-26 14:14:00,32.9,20.5,30.38,NW,326,1.0,0.0,60,0.02,,,0.02,VWS V14.01,2013-01-26 19:14:00,
2013-01-26 14:19:00,33.4,20.6,30.37,NE,44,2.0,0.0,59,0.01,,,0.02,VWS V14.01,2013-01-26 19:19:00,
2013-01-26 14:24:00,33.5,20.7,30.37,WNW,296,3.0,0.0,59,0.01,,,0.02,VWS V14.01,2013-01-26 19:24:00,
2013-01-26 14:29:00,33.4,20.2,30.37,SW,214,2.0,0.0,58,0.01,,,0.02,VWS V14.01,2013-01-26 19:29:00,
2013-01-26 14:34:00,34.0,20.8,30.37,SW,219,2.0,0.0,58,0.01,,,0.02,VWS V14.01,2013-01-26 19:34:00,
2013-01-26 14:39:00,34.4,20.3,30.37,WSW,254,3.0,0.0,56,0.01,,,0.02,VWS V14.01,2013-01-26 19:39:00,
2013-01-26 14:44:00,34.6,20.5,30.37,WNW,285,0.0,0.0,56,0.01,,,0.02,VWS V14.01,2013-01-26 19:44:00,
2013-01-26 14:49:00,34.7,20.2,30.38,South,190,0.0,0.0,55,0.00,,,0.02,VWS V14.01,2013-01-26 19:49:00,
2013-01-26 14:54:00,34.9,20.4,30.38,WNW,294,3.0,0.0,55,0.00,,,0.02,VWS V14.01,2013-01-26 19:54:00,
2013-01-26 14:59:00,34.6,21.0,30.38,WNW,294,2.0,0.0,57,0.00,,,0.02,VWS V14.01,2013-01-26 19:59:00,
2013-01-26 15:04:00,34.7,20.6,30.38,WNW,288,5.0,0.0,56,0.00,,,0.02,VWS V14.01,2013-01-26 20:04:00,
2013-01-26 15:09:00,34.7,20.6,30.38,SW,219,1.0,0.0,56,0.00,,,0.02,VWS V14.01,2013-01-26 20:09:00,
2013-01-26 15:14:00,35.0,20.0,30.38,West,259,2.0,0.0,54,0.00,,,0.02,VWS V14.01,2013-01-26 20:14:00,
2013-01-26 15:19:00,35.0,20.0,30.38,WNW,284,3.0,0.0,54,0.00,,,0.02,VWS V14.01,2013-01-26 20:19:00,
2013-01-26 15:24:00,34.6,19.2,30.38,WNW,286,0.0,0.0,53,0.00,,,0.02,VWS V14.01,2013-01-26 20:24:00,
2013-01-26 15:29:00,34.3,19.4,30.38,NNW,341,0.0,0.0,54,0.00,,,0.02,VWS V14.01,2013-01-26 20:29:00,
2013-01-26 15:34:00,34.7,19.8,30.38,WSW,239,0.0,0.0,54,0.00,,,0.02,VWS V14.01,2013-01-26 20:34:00,
2013-01-26 15:39:00,35.0,19.6,30.38,WNW,298,6.0,0.0,53,0.00,,,0.02,VWS V14.01,2013-01-26 20:39:00,
2013-01-26 15:44:00,34.7,19.3,30.38,NNW,336,5.0,0.0,53,0.00,,,0.02,VWS V14.01,2013-01-26 20:44:00,
2013-01-26 15:49:00,34.9,19.5,30.39,NW,320,0.0,0.0,53,0.00,,,0.02,VWS V14.01,2013-01-26 20:49:00,
2013-01-26 15:55:00,35.2,19.8,30.39,NW,315,0.0,0.0,53,0.00,,,0.02,VWS V14.01,2013-01-26 20:55:00,
2013-01-26 16:00:00,35.5,19.6,30.39,WNW,294,1.0,0.0,52,0.00,,,0.02,VWS V14.01,2013-01-26 21:00:00,
2013-01-26 16:05:00,35.8,19.0,30.39,North,355,0.0,0.0,50,0.00,,,0.02,VWS V14.01,2013-01-26 21:05:00,
2013-01-26 16:10:00,35.6,18.8,30.39,NW,314,0.0,0.0,50,0.00,,,0.02,VWS V14.01,2013-01-26 21:10:00,
2013-01-26 16:15:00,35.8,19.5,30.39,West,271,6.0,0.0,51,0.00,,,0.02,VWS V14.01,2013-01-26 21:15:00,
2013-01-26 16:20:00,35.9,19.1,30.39,WNW,294,2.0,0.0,50,0.00,,,0.02,VWS V14.01,2013-01-26 21:20:00,
2013-01-26 16:25:00,35.8,18.5,30.39,WNW,282,0.0,0.0,49,0.00,,,0.02,VWS V14.01,2013-01-26 21:25:00,
2013-01-26 16:30:00,35.6,18.3,30.39,West,279,2.0,0.0,49,0.00,,,0.02,VWS V14.01,2013-01-26 21:30:00,
2013-01-26 16:35:00,35.5,18.7,30.39,West,264,3.0,0.0,50,0.00,,,0.02,VWS V14.01,2013-01-26 21:35:00,
2013-01-26 16:40:00,35.5,18.7,30.39,West,265,2.0,0.0,50,0.00,,,0.02,VWS V14.01,2013-01-26 21:40:00,
2013-01-26 16:45:00,35.5,18.7,30.39,West,267,2.0,0.0,50,0.00,,,0.02,VWS V14.01,2013-01-26 21:45:00,
2013-01-26 16:50:00,35.3,18.5,30.39,WNW,290,1.0,0.0,50,0.00,,,0.02,VWS V14.01,2013-01-26 21:50:00,
2013-01-26 16:55:00,35.2,18.4,30.39,West,262,0.0,0.0,50,0.00,,,0.02,VWS V14.01,2013-01-26 21:55:00,
2013-01-26 17:00:00,35.3,18.5,30.39,West,262,2.0,0.0,50,0.00,,,0.02,VWS V14.01,2013-01-26 22:00:00,
2013-01-26 17:05:00,35.0,18.2,30.39,WNW,294,2.0,0.0,50,0.00,,,0.02,VWS V14.01,2013-01-26 22:05:00,
2013-01-26 17:10:00,35.0,18.7,30.39,WNW,294,0.0,0.0,51,0.00,,,0.02,VWS V14.01,2013-01-26 22:10:00,
2013-01-26 17:15:00,34.7,18.0,30.39,WNW,292,2.0,0.0,50,0.00,,,0.02,VWS V14.01,2013-01-26 22:15:00,
2013-01-26 17:20:00,34.6,18.3,30.39,WNW,292,0.0,0.0,51,0.00,,,0.02,VWS V14.01,2013-01-26 22:20:00,
2013-01-26 17:25:00,34.4,18.6,30.39,WNW,292,0.0,0.0,52,0.00,,,0.02,VWS V14.01,2013-01-26 22:25:00,
2013-01-26 17:30:00,34.4,18.6,30.39,WNW,292,0.0,0.0,52,0.00,,,0.02,VWS V14.01,2013-01-26 22:30:00,
2013-01-26 17:35:00,34.3,18.1,30.39,WNW,294,1.0,0.0,51,0.00,,,0.02,VWS V14.01,2013-01-26 22:35:00,
2013-01-26 17:40:00,34.1,17.4,30.39,WNW,294,1.0,0.0,50,0.00,,,0.02,VWS V14.01,2013-01-26 22:40:00,
2013-01-26 17:45:00,34.0,17.3,30.39,WNW,294,0.0,0.0,50,0.00,,,0.02,VWS V14.01,2013-01-26 22:45:00,
2013-01-26 17:50:00,33.8,17.1,30.40,WNW,294,0.0,0.0,50,0.00,,,0.02,VWS V14.01,2013-01-26 22:50:00,
2013-01-26 17:55:00,33.5,17.3,30.40,WNW,294,0.0,0.0,51,0.00,,,0.02,VWS V14.01,2013-01-26 22:55:00,
2013-01-26 18:00:00,33.4,17.2,30.40,WNW,294,0.0,0.0,51,0.00,,,0.02,VWS V14.01,2013-01-26 23:00:00,
2013-01-26 18:05:00,33.2,17.5,30.40,WNW,294,0.0,0.0,52,0.00,,,0.02,VWS V14.01,2013-01-26 23:05:00,
2013-01-26 18:10:00,33.1,17.4,30.40,WNW,294,0.0,0.0,52,0.00,,,0.02,VWS V14.01,2013-01-26 23:10:00,
2013-01-26 18:15:00,32.8,17.1,30.40,WNW,294,0.0,0.0,52,0.00,,,0.02,VWS V14.01,2013-01-26 23:15:00,
2013-01-26 18:20:00,32.5,17.3,30.40,WNW,294,0.0,0.0,53,0.00,,,0.02,VWS V14.01,2013-01-26 23:20:00,
2013-01-26 18:25:00,32.2,17.0,30.40,WNW,294,0.0,0.0,53,0.00,,,0.02,VWS V14.01,2013-01-26 23:25:00,
2013-01-26 18:30:00,31.9,17.2,30.40,WNW,294,0.0,0.0,54,0.00,,,0.02,VWS V14.01,2013-01-26 23:30:00,
2013-01-26 18:35:00,31.8,17.1,30.41,WNW,294,0.0,0.0,54,0.00,,,0.02,VWS V14.01,2013-01-26 23:35:00,
2013-01-26 18:40:00,31.6,17.3,30.41,WNW,294,0.0,0.0,55,0.00,,,0.02,VWS V14.01,2013-01-26 23:40:00,
2013-01-26 18:45:00,31.3,17.0,30.41,WNW,294,0.0,0.0,55,0.00,,,0.02,VWS V14.01,2013-01-26 23:45:00,
2013-01-26 18:50:00,31.0,17.2,30.42,WNW,294,0.0,0.0,56,0.00,,,0.02,VWS V14.01,2013-01-26 23:50:00,
2013-01-26 18:55:00,30.9,17.1,30.42,WNW,294,0.0,0.0,56,0.00,,,0.02,VWS V14.01,2013-01-26 23:55:00,
2013-01-26 19:00:00,30.7,17.3,30.42,WNW,294,0.0,0.0,57,0.00,,,0.02,VWS V14.01,2013-01-27 00:00:00,
2013-01-26 19:05:00,30.6,17.2,30.42,WNW,294,0.0,0.0,57,0.00,,,0.02,VWS V14.01,2013-01-27 00:05:00,
2013-01-26 19:10:00,30.6,17.2,30.42,WNW,294,0.0,0.0,57,0.00,,,0.02,VWS V14.01,2013-01-27 00:10:00,
2013-01-26 19:15:00,30.4,17.4,30.42,WNW,294,0.0,0.0,58,0.00,,,0.02,VWS V14.01,2013-01-27 00:15:00,
2013-01-26 19:20:00,30.1,17.5,30.42,WNW,294,0.0,0.0,59,0.00,,,0.02,VWS V14.01,2013-01-27 00:20:00,
2013-01-26 19:25:00,30.0,17.4,30.42,WNW,294,0.0,0.0,59,0.00,,,0.02,VWS V14.01,2013-01-27 00:25:00,
2013-01-26 19:30:00,29.7,17.1,30.42,WNW,294,0.0,0.0,59,0.00,,,0.02,VWS V14.01,2013-01-27 00:30:00,
2013-01-26 19:35:00,29.5,17.3,30.43,WNW,294,0.0,0.0,60,0.00,,,0.02,VWS V14.01,2013-01-27 00:35:00,
2013-01-26 19:40:00,29.3,17.9,30.43,WNW,294,0.0,0.0,62,0.00,,,0.02,VWS V14.01,2013-01-27 00:40:00,
2013-01-26 19:51:00,29.0,18.4,30.43,WNW,294,0.0,0.0,64,0.00,,,0.02,VWS V14.01,2013-01-27 00:51:00,
2013-01-26 19:56:00,28.8,18.5,30.43,WNW,294,0.0,0.0,65,0.00,,,0.02,VWS V14.01,2013-01-27 00:56:00,
2013-01-26 20:01:00,28.8,18.2,30.43,WNW,294,0.0,0.0,64,0.00,,,0.02,VWS V14.01,2013-01-27 01:01:00,
2013-01-26 20:06:00,28.7,18.4,30.44,WNW,294,0.0,0.0,65,0.00,,,0.02,VWS V14.01,2013-01-27 01:06:00,
2013-01-26 20:11:00,28.5,18.6,30.44,WNW,294,0.0,0.0,66,0.00,,,0.02,VWS V14.01,2013-01-27 01:11:00,
2013-01-26 20:16:00,28.4,18.1,30.44,WNW,294,0.0,0.0,65,0.00,,,0.02,VWS V14.01,2013-01-27 01:16:00,
2013-01-26 20:21:00,28.2,18.3,30.44,WNW,294,0.0,0.0,66,0.00,,,0.02,VWS V14.01,2013-01-27 01:21:00,
2013-01-26 20:26:00,28.2,18.0,30.44,WNW,294,0.0,0.0,65,0.00,,,0.02,VWS V14.01,2013-01-27 01:26:00,
2013-01-26 20:31:00,28.1,17.9,30.44,WNW,294,0.0,0.0,65,0.00,,,0.02,VWS V14.01,2013-01-27 01:31:00,
2013-01-26 20:36:00,27.9,18.4,30.43,WNW,294,0.0,0.0,67,0.00,,,0.02,VWS V14.01,2013-01-27 01:36:00,
2013-01-26 20:41:00,27.6,17.7,30.43,WNW,294,0.0,0.0,66,0.00,,,0.02,VWS V14.01,2013-01-27 01:41:00,
2013-01-26 20:46:00,27.6,17.7,30.43,WNW,294,0.0,0.0,66,0.00,,,0.02,VWS V14.01,2013-01-27 01:46:00,
2013-01-26 20:51:00,27.6,17.7,30.44,WNW,294,0.0,0.0,66,0.00,,,0.02,VWS V14.01,2013-01-27 01:51:00,
2013-01-26 20:56:00,27.9,17.3,30.44,WNW,294,0.0,0.0,64,0.00,,,0.02,VWS V14.01,2013-01-27 01:56:00,
2013-01-26 21:01:00,28.1,17.5,30.44,WNW,294,0.0,0.0,64,0.00,,,0.02,VWS V14.01,2013-01-27 02:01:00,
2013-01-26 21:06:00,27.9,17.7,30.44,WNW,294,0.0,0.0,65,0.00,,,0.02,VWS V14.01,2013-01-27 02:06:00,
2013-01-26 21:11:00,27.9,17.3,30.44,WNW,294,0.0,0.0,64,0.00,,,0.02,VWS V14.01,2013-01-27 02:11:00,
2013-01-26 21:16:00,28.1,17.9,30.44,WNW,294,0.0,0.0,65,0.00,,,0.02,VWS V14.01,2013-01-27 02:16:00,
2013-01-26 21:21:00,27.8,17.6,30.45,WNW,294,0.0,0.0,65,0.00,,,0.02,VWS V14.01,2013-01-27 02:21:00,
2013-01-26 21:26:00,27.8,17.6,30.45,ENE,74,1.0,0.0,65,0.00,,,0.02,VWS V14.01,2013-01-27 02:26:00,
2013-01-26 21:31:00,27.9,17.0,30.45,ENE,74,1.0,0.0,63,0.00,,,0.02,VWS V14.01,2013-01-27 02:31:00,
2013-01-26 21:36:00,28.1,16.8,30.45,ENE,74,2.0,0.0,62,0.00,,,0.02,VWS V14.01,2013-01-27 02:36:00,
2013-01-26 21:41:00,28.1,16.8,30.45,ENE,65,2.0,0.0,62,0.00,,,0.02,VWS V14.01,2013-01-27 02:41:00,
2013-01-26 21:47:00,28.2,16.9,30.45,ENE,76,0.0,0.0,62,0.00,,,0.02,VWS V14.01,2013-01-27 02:47:00,
2013-01-26 21:52:00,28.1,16.8,30.45,ENE,65,0.0,0.0,62,0.00,,,0.02,VWS V14.01,2013-01-27 02:52:00,
2013-01-26 21:57:00,27.9,16.6,30.45,NE,49,2.0,0.0,62,0.00,,,0.02,VWS V14.01,2013-01-27 02:57:00,
2013-01-26 22:02:00,27.9,17.0,30.45,ENE,75,2.0,0.0,63,0.00,,,0.02,VWS V14.01,2013-01-27 03:02:00,
2013-01-26 22:07:00,27.8,16.9,30.46,ENE,65,0.0,0.0,63,0.00,,,0.02,VWS V14.01,2013-01-27 03:07:00,
2013-01-26 22:12:00,27.6,16.7,30.46,ENE,69,1.0,0.0,63,0.00,,,0.02,VWS V14.01,2013-01-27 03:12:00,
2013-01-26 22:17:00,27.6,17.0,30.46,ENE,64,0.0,0.0,64,0.00,,,0.02,VWS V14.01,2013-01-27 03:17:00,
2013-01-26 22:22:00,27.5,16.9,30.47,ENE,65,0.0,0.0,64,0.00,,,0.02,VWS V14.01,2013-01-27 03:22:00,
2013-01-26 22:27:00,27.3,17.1,30.47,ENE,64,0.0,0.0,65,0.00,,,0.02,VWS V14.01,2013-01-27 03:27:00,
2013-01-26 22:32:00,27.2,17.0,30.47,East,80,3.0,0.0,65,0.00,,,0.02,VWS V14.01,2013-01-27 03:32:00,
2013-01-26 22:37:00,27.2,17.0,30.47,ENE,74,2.0,0.0,65,0.00,,,0.02,VWS V14.01,2013-01-27 03:37:00,
2013-01-26 22:42:00,27.2,17.0,30.47,ENE,71,3.0,0.0,65,0.00,,,0.02,VWS V14.01,2013-01-27 03:42:00,
2013-01-26 22:47:00,27.0,16.8,30.47,ENE,72,3.0,0.0,65,0.00,,,0.02,VWS V14.01,2013-01-27 03:47:00,
2013-01-26 22:52:00,27.0,16.8,30.48,ENE,71,1.0,0.0,65,0.00,,,0.02,VWS V14.01,2013-01-27 03:52:00,
2013-01-26 22:57:00,27.0,16.8,30.48,ENE,67,0.0,0.0,65,0.00,,,0.02,VWS V14.01,2013-01-27 03:57:00,
2013-01-26 23:00:00,26.6,16.8,30.46,ENE,76,2.0,0.0,66,0.00,,,0.02,VWS V14.01,2013-01-27 04:00:00,
2013-01-26 23:02:00,26.9,16.7,30.48,ENE,71,2.0,0.0,65,0.00,,,0.02,VWS V14.01,2013-01-27 04:02:00,
2013-01-26 23:07:00,26.7,16.9,30.48,ENE,69,0.0,0.0,66,0.00,,,0.02,VWS V14.01,2013-01-27 04:07:00,
2013-01-26 23:10:00,26.6,17.1,30.46,East,84,2.0,0.0,67,0.00,,,0.00,VWS V14.01,2013-01-27 04:10:00,
2013-01-26 23:12:00,26.7,16.9,30.48,ENE,70,2.0,0.0,66,0.00,,,0.02,VWS V14.01,2013-01-27 04:12:00,
2013-01-26 23:17:00,26.6,16.8,30.48,East,81,2.0,0.0,66,0.00,,,0.02,VWS V14.01,2013-01-27 04:17:00,
2013-01-26 23:20:00,26.7,17.2,30.46,East,82,3.0,0.0,67,0.00,,,0.00,VWS V14.01,2013-01-27 04:20:00,
2013-01-26 23:22:00,26.6,16.8,30.48,ENE,74,0.0,0.0,66,0.00,,,0.02,VWS V14.01,2013-01-27 04:22:00,
2013-01-26 23:27:00,26.6,16.8,30.48,ENE,72,1.0,0.0,66,0.00,,,0.02,VWS V14.01,2013-01-27 04:27:00,
2013-01-26 23:30:00,26.6,17.1,30.45,East,86,2.0,0.0,67,0.00,,,0.00,VWS V14.01,2013-01-27 04:30:00,
2013-01-26 23:32:00,26.6,16.8,30.48,ENE,67,2.0,0.0,66,0.00,,,0.02,VWS V14.01,2013-01-27 04:32:00,
2013-01-26 23:37:00,26.6,16.8,30.47,East,84,3.0,0.0,66,0.00,,,0.02,VWS V14.01,2013-01-27 04:37:00,
2013-01-26 23:40:00,26.4,17.3,30.45,ESE,110,1.0,0.0,68,0.00,,,0.00,VWS V14.01,2013-01-27 04:40:00,
2013-01-26 23:42:00,26.6,16.8,30.47,ENE,65,3.0,0.0,66,0.00,,,0.02,VWS V14.01,2013-01-27 04:42:00,
2013-01-26 23:47:00,26.6,16.8,30.47,East,82,6.0,0.0,66,0.00,,,0.02,VWS V14.01,2013-01-27 04:47:00,
2013-01-26 23:50:00,26.4,17.3,30.46,East,81,2.0,0.0,68,0.00,,,0.00,VWS V14.01,2013-01-27 04:50:00,
2013-01-26 23:52:00,26.6,16.8,30.47,ENE,78,4.0,0.0,66,0.00,,,0.02,VWS V14.01,2013-01-27 04:52:00,
2013-01-26 23:57:00,26.6,16.8,30.47,ENE,76,2.0,0.0,66,0.00,,,0.02,VWS V14.01,2013-01-27 04:57:00,
2013-01-26 23:58:00,26.1,17.3,30.46,ENE,73,2.0,0.0,69,0.00,,,0.00,VWS V14.01,2013-01-27 04:58:00,